Wind_Speed
30 32 31 32 38 29 10 6 3 13 16 3 3 1 3 13 8 4 2 3 4 15 16 11 12 9 3 7 9 12 9 2 6 12 9 8 13 14 16 8 9 8 12 20
30 31 30 32 37 23 8 6 6 12 1 3 4 2 1 6 5 2 4 3 2 5 11 6 6 6 5 10 12 10 10 5 3 3 3 8 11 17 16 18 16 23 15 15
28 30 30 31 31 19 8 3 2 4 3 3 8 3 8 5 2 3 4 8 8 9 11 3 8 5 4 11 12 7 9 5 8 8 9 10 7 15 19 16 9 20 24 29
26 29 29 29 30 18 6 7 4 2 2 5 9 2 3 7 4 2 3 3 1 4 4 4 4 5 5 5 9 6 5 5 10 17 22 20 21 24 24 20 20 17 31 24
26 27 30 28 28 18 21 5 4 4 3 13 9 1 6 4 5 1 2 3 6 3 4 1 4 5 7 5 9 11 4 3 2 12 21 20 19 23 18 17 19 19 25 29
26 26 27 27 25 24 10 7 6 4 4 7 7 6 4 2 3 4 4 3 5 3 2 3 2 4 4 1 4 10 4 2 2 6 10 20 9 4 6 8 11 9 9 18
22 24 25 25 23 21 12 6 5 4 4 7 8 3 3 4 2 3 2 4 1 3 2 6 7 9 10 12 11 10 4 4 2 6 11 3 3 2 6 10 16 10 15 18
21 22 22 23 23 18 12 14 5 3 1 6 8 9 4 2 7 1 4 2 2 1 4 3 3 2 3 7 15 11 11 4 2 3 6 17 4 6 3 4 8 11 11 14
20 18 19 22 21 18 11 8 6 3 4 8 7 8 10 5 7 4 3 1 1 1 2 2 2 2 2 3 4 0 8 12 4 1 4 4 6 10 1 3 2 15 13 11
20 20 19 20 19 19 15 7 7 2 4 5 6 8 8 8 7 1 3 3 2 3 2 2 2 3 3 3 4 6 4 3 6 5 4 7 14 7 2 4 7 14 13 11
20 20 19 19 18 18 16 8 9 9 5 13 5 12 7 9 10 4 5 4 2 3 3 1 2 3 1 3 4 4 8 6 4 4 4 6 2 5 4 6 10 10 10 6
18 20 20 21 18 16 16 10 10 10 8 9 5 9 13 9 10 4 6 2 3 3 2 3 2 2 3 6 3 3 4 6 2 5 3 5 8 11 12 9 10 9 6 2
18 17 20 21 21 15 14 14 12 11 5 8 6 10 12 14 13 9 5 3 4 4 4 1 1 5 2 3 5 5 5 5 4 5 2 6 11 7 3 7 7 4 1 4
18 17 19 20 22 17 16 15 13 9 7 4 2 8 9 13 14 13 13 4 4 5 5 3 2 2 3 3 4 6 4 3 4 9 14 12 3 5 3 3 3 5 6 6
19 19 20 20 22 17 20 17 14 13 8 3 1 3 9 10 12 13 12 8 6 5 3 3 3 3 4 7 5 10 10 8 6 5 5 6 5 3 3 3 5 6 9 11
21 22 22 23 21 15 13 4 7 11 15 3 2 2 2 7 7 8 9 9 9 7 4 3 4 7 5 3 6 8 14 19 18 10 0 3 4 2 1 3 6 9 11 12
24 25 26 26 23 18 14 5 8 5 9 3 2 2 2 4 4 4 4 6 5 5 3 4 4 6 5 3 9 8 6 7 10 8 6 4 5 2 4 6 9 13 14 15
28 29 18 7 2 6 11 17 13 8 5 4 2 2 3 6 4 4 6 5 6 6 4 4 3 4 3 5 12 18 20 20 13 9 10 9 5 7 9 10 13 16 17 18
19 5 3 6 4 2 4 8 9 5 3 4 1 3 2 7 3 3 5 3 3 5 2 3 3 3 5 10 8 7 7 7 5 9 10 10 9 11 13 15 15 18 20 19
7 2 2 2 2 2 4 5 3 4 4 4 2 2 2 5 4 4 1 3 2 2 1 3 3 4 22 25 23 16 8 4 7 8 8 14 15 16 17 18 18 19 22 23
6 5 3 1 6 5 3 3 3 5 3 4 3 4 1 3 2 1 1 1 0 2 0 2 2 4 1 2 8 11 11 13 19 10 10 11 13 17 20 20 20 22 25 26
5 5 3 2 2 3 2 1 2 3 1 2 1 2 2 1 2 2 0 1 1 3 3 2 3 3 5 12 15 14 13 8 13 14 11 9 14 17 23 25 25 26 28 27
2 2 2 2 2 2 2 2 1 2 5 7 4 1 0 1 2 1 1 2 2 1 2 3 4 8 12 16 15 11 7 5 9 10 10 9 13 19 25 26 26 28 28 28
1 2 1 1 1 1 1 0 1 1 2 8 4 1 0 0 1 0 2 0 1 2 3 4 3 15 21 18 14 9 3 4 5 7 8 11 16 21 24 26 28 31 31 30
2 2 1 1 1 0 1 2 1 3 4 5 1 2 1 0 1 1 1 2 4 4 2 3 16 24 22 19 17 11 5 4 6 6 8 12 16 21 24 26 30 30 30 30
3 3 2 2 2 1 0 1 2 5 5 0 1 1 1 3 2 3 5 2 4 1 3 15 21 22 20 19 17 12 6 6 7 7 8 12 18 22 25 28 29 29 29 29
2 3 3 3 2 2 2 3 2 6 3 1 1 3 2 1 2 3 3 3 1 8 13 17 20 21 22 20 17 12 7 6 8 8 10 15 20 23 27 31 30 29 28 25
Wind_Direction
352 351 348 349 353 353 13 73 72 146 145 113 220 95 3 123 130 330 56 154 141 157 171 183 181 178 87 187 184 190 201 201 248 244 248 233 259 224 226 229 229 229 262 267
352 351 351 354 5 16 48 67 91 145 200 142 145 350 166 109 156 185 169 137 160 145 158 166 190 187 116 176 179 174 162 209 282 224 165 233 238 245 248 244 263 255 263 261
355 355 357 359 12 16 69 96 89 72 279 292 127 201 124 119 66 66 86 107 132 133 162 42 176 158 163 187 203 76 180 217 238 275 304 324 248 250 257 259 253 264 250 267
359 357 1 2 16 39 61 25 66 180 157 152 159 143 116 137 163 108 110 121 177 148 147 171 165 168 149 175 189 180 218 242 255 266 276 280 274 273 272 258 255 254 275 276
358 0 3 4 16 36 61 49 10 3 169 165 186 65 137 136 102 67 121 156 151 143 151 143 164 195 213 210 179 202 209 262 313 274 267 259 270 281 283 267 260 254 261 269
357 1 4 6 14 24 46 36 35 292 192 182 176 202 182 128 131 52 54 110 126 181 55 337 329 247 272 265 179 199 194 215 268 272 319 308 274 263 272 263 255 255 268 273
356 359 2 3 9 18 24 28 347 306 167 201 207 183 196 184 83 95 120 165 129 65 37 318 255 252 255 243 217 203 193 168 236 294 307 275 12 76 279 275 285 304 296 284
359 357 360 357 3 13 38 28 4 316 240 193 202 190 168 187 181 138 140 119 85 308 301 285 299 177 209 238 238 212 213 197 268 275 314 272 315 344 327 333 312 6 339 331
360 351 349 350 357 359 11 10 19 325 306 206 201 193 186 169 172 183 204 156 178 306 293 261 292 281 3 168 131 172 209 209 216 330 310 301 296 342 24 278 333 12 352 340
351 352 346 346 346 348 355 351 349 277 266 277 229 210 212 204 210 251 131 166 174 182 190 258 250 266 351 269 200 169 156 185 225 241 261 273 260 313 315 300 348 343 342 346
342 345 343 343 340 339 343 335 322 357 305 277 283 226 214 190 207 196 130 158 185 187 231 275 246 258 254 286 267 198 187 189 198 196 235 269 80 293 306 349 323 325 313 334
330 331 335 336 335 338 339 317 322 318 271 258 251 224 217 219 206 195 178 6 135 141 159 218 310 290 291 286 281 230 239 230 332 220 228 340 308 282 304 310 304 306 304 332
326 327 323 321 326 327 321 309 319 320 272 281 241 214 222 220 222 225 233 203 161 183 159 110 270 256 235 261 252 278 235 232 245 315 159 298 302 295 305 317 313 299 322 135
319 316 312 311 314 318 313 300 293 284 274 274 213 207 202 216 221 214 210 206 211 207 196 193 244 256 286 275 313 281 311 169 253 263 279 293 71 20 350 353 39 96 100 107
316 313 309 305 306 311 308 295 277 243 230 303 267 201 211 210 210 215 225 222 201 186 197 208 231 240 250 238 272 259 221 230 219 275 6 316 359 8 20 83 100 116 123 117
319 315 304 296 299 300 309 281 204 236 210 270 250 192 174 197 199 211 224 223 214 207 210 214 237 230 232 267 253 254 242 235 252 280 315 310 297 294 84 112 122 129 131 133
314 313 307 294 283 264 225 235 160 198 190 247 258 153 142 146 157 180 197 220 213 211 226 219 248 252 226 242 243 270 278 293 251 237 241 257 250 252 180 148 141 137 128 130
326 315 308 294 222 207 228 244 268 235 197 249 257 112 175 168 156 177 188 192 203 222 234 229 223 231 233 257 245 248 262 259 255 240 237 237 232 191 167 161 149 138 133 135
339 0 81 85 75 152 179 199 239 178 232 289 242 163 164 167 177 180 186 215 226 207 239 221 229 193 223 241 271 289 309 228 276 215 227 215 203 184 174 166 159 152 144 147
332 304 15 115 201 168 127 200 202 203 220 233 261 209 128 179 159 180 197 192 272 261 189 295 234 254 253 259 272 280 277 256 247 192 205 197 197 188 179 176 170 166 157 154
4 9 1 91 149 157 207 184 192 203 202 199 221 230 156 201 176 209 264 196 300 262 132 276 270 265 274 317 318 307 276 250 249 251 242 230 218 197 183 175 172 173 167 165
318 320 319 289 252 227 224 199 238 215 147 98 200 119 187 136 191 267 234 219 227 260 345 285 261 262 328 331 328 321 305 254 223 225 226 232 213 201 187 180 178 174 173 169
308 305 272 275 226 219 235 149 62 82 1 5 20 67 151 169 180 127 195 221 243 320 247 247 251 325 336 332 331 329 320 221 204 211 212 204 190 190 191 181 179 176 172 170
201 288 250 268 200 69 98 139 52 27 9 357 344 302 213 62 167 189 224 127 283 253 246 250 325 347 335 340 341 340 328 202 194 195 196 188 187 184 184 185 178 176 173 172
236 252 237 283 321 178 11 10 26 41 3 356 307 261 175 132 114 179 98 234 246 234 268 9 345 337 341 343 344 340 310 230 218 207 194 187 186 184 181 181 178 179 175 172
235 228 201 145 284 252 85 7 348 359 339 96 192 340 193 233 179 183 215 215 232 69 345 321 330 334 338 338 340 336 305 255 232 214 201 186 183 182 180 177 178 177 179 177
218 231 229 109 102 284 336 352 345 324 343 28 353 209 191 79 205 238 191 225 333 323 320 335 334 330 332 333 333 331 308 265 239 223 202 190 185 182 179 176 176 179 179 178
Height
1447 1440 1432 1425 1415 1406 1402 1402 1407 1412 1414 1418 1417 1414 1415 1411 1414 1414 1412 1411 1409 1413 1419 1422 1424 1424 1429 1435 1437 1441 1444 1449 1450 1443 1438 1441 1440 1444 1447 1452 1435 1435 1426 1386
1447 1440 1432 1424 1415 1408 1406 1407 1412 1416 1416 1414 1412 1418 1413 1413 1417 1415 1415 1414 1413 1415 1418 1424 1423 1426 1433 1437 1438 1438 1443 1449 1447 1438 1435 1434 1437 1435 1434 1435 1436 1422 1423 1383
1447 1441 1433 1425 1417 1410 1409 1412 1414 1418 1417 1413 1413 1416 1412 1416 1417 1416 1415 1416 1416 1416 1419 1421 1424 1430 1435 1437 1438 1441 1442 1441 1443 1430 1425 1430 1443 1435 1431 1434 1427 1406 1392 1383
1449 1442 1435 1427 1420 1414 1412 1412 1417 1418 1416 1415 1418 1416 1415 1417 1417 1418 1417 1418 1416 1415 1419 1423 1425 1427 1432 1437 1439 1441 1444 1445 1441 1436 1431 1430 1428 1422 1419 1425 1417 1414 1379 1385
1450 1444 1438 1431 1424 1419 1416 1419 1418 1417 1414 1414 1415 1415 1414 1415 1417 1417 1417 1415 1417 1419 1418 1420 1423 1426 1428 1428 1437 1439 1441 1441 1442 1437 1425 1422 1418 1407 1405 1406 1402 1401 1395 1383
1450 1446 1441 1434 1428 1425 1424 1425 1423 1423 1418 1414 1412 1413 1415 1418 1417 1421 1419 1419 1420 1422 1423 1425 1426 1427 1428 1429 1431 1435 1440 1445 1443 1421 1410 1410 1404 1404 1401 1399 1395 1393 1385 1375
1450 1446 1442 1438 1432 1428 1426 1426 1425 1424 1419 1414 1413 1415 1417 1418 1419 1419 1422 1422 1422 1427 1426 1426 1425 1425 1425 1426 1429 1433 1436 1444 1441 1426 1417 1403 1395 1396 1395 1393 1383 1379 1374 1367
1450 1447 1443 1439 1435 1431 1427 1425 1426 1424 1417 1417 1416 1417 1418 1419 1420 1422 1424 1425 1426 1427 1426 1423 1419 1421 1423 1418 1422 1426 1432 1436 1433 1427 1416 1397 1389 1388 1392 1393 1383 1376 1373 1366
1448 1447 1443 1439 1436 1433 1429 1428 1426 1424 1424 1415 1414 1416 1417 1419 1419 1423 1424 1426 1426 1427 1426 1424 1422 1415 1409 1413 1423 1424 1425 1429 1433 1427 1423 1404 1388 1382 1387 1388 1377 1373 1371 1366
1445 1445 1442 1439 1436 1432 1429 1427 1426 1425 1423 1416 1415 1414 1415 1418 1418 1418 1423 1425 1426 1427 1427 1425 1422 1419 1413 1410 1406 1418 1423 1426 1426 1426 1424 1403 1384 1384 1386 1380 1381 1376 1374 1370
1448 1444 1441 1438 1436 1432 1430 1427 1425 1424 1421 1414 1414 1414 1415 1417 1417 1417 1422 1424 1425 1426 1424 1423 1421 1418 1410 1410 1400 1402 1407 1412 1415 1419 1420 1404 1383 1382 1384 1381 1379 1378 1374 1373
1444 1443 1442 1437 1434 1432 1430 1427 1424 1423 1422 1415 1412 1413 1413 1416 1417 1418 1420 1421 1422 1424 1426 1428 1426 1422 1414 1407 1405 1400 1402 1394 1393 1395 1385 1380 1383 1383 1381 1380 1379 1377 1376 1376
1440 1436 1438 1437 1432 1430 1429 1426 1423 1420 1418 1411 1410 1410 1411 1413 1415 1417 1419 1420 1421 1423 1424 1426 1425 1423 1420 1414 1401 1396 1394 1394 1395 1393 1379 1380 1380 1380 1380 1379 1376 1376 1375 1376
1436 1433 1432 1432 1429 1426 1425 1423 1421 1420 1417 1413 1407 1407 1408 1410 1412 1414 1416 1417 1419 1421 1423 1425 1424 1423 1416 1408 1403 1400 1395 1396 1391 1387 1381 1378 1380 1380 1379 1377 1376 1376 1376 1377
1431 1428 1427 1426 1424 1421 1419 1416 1414 1415 1417 1410 1405 1405 1406 1408 1410 1412 1414 1416 1418 1420 1422 1422 1419 1417 1415 1407 1405 1394 1390 1387 1387 1380 1381 1381 1381 1380 1379 1379 1378 1377 1377 1379
1426 1423 1421 1420 1419 1418 1417 1413 1410 1411 1411 1410 1404 1404 1404 1405 1407 1409 1412 1414 1416 1417 1418 1416 1415 1413 1414 1406 1390 1380 1379 1380 1381 1381 1382 1382 1381 1380 1379 1380 1379 1379 1380 1382
1419 1415 1413 1411 1410 1411 1412 1411 1408 1408 1409 1409 1405 1402 1404 1405 1406 1408 1411 1412 1413 1415 1413 1413 1411 1409 1407 1400 1388 1378 1376 1378 1379 1380 1381 1382 1380 1380 1380 1380 1381 1381 1382 1385
1411 1407 1402 1401 1401 1404 1405 1406 1405 1406 1407 1407 1403 1403 1405 1405 1406 1408 1409 1410 1412 1411 1410 1408 1406 1403 1401 1391 1376 1376 1376 1376 1376 1377 1378 1379 1379 1380 1380 1381 1384 1384 1386 1388
1407 1404 1403 1402 1403 1404 1403 1404 1404 1405 1408 1404 1402 1401 1401 1404 1405 1406 1407 1408 1407 1406 1404 1402 1402 1393 1389 1373 1374 1373 1373 1373 1373 1373 1375 1376 1378 1378 1380 1382 1385 1386 1388 1391
1406 1406 1405 1404 1403 1403 1403 1405 1404 1404 1403 1403 1400 1399 1400 1403 1402 1404 1405 1406 1404 1402 1398 1400 1395 1383 1371 1369 1369 1370 1372 1372 1371 1372 1373 1374 1375 1377 1379 1382 1385 1388 1389 1393
1407 1406 1405 1404 1403 1402 1402 1402 1402 1401 1400 1400 1399 1399 1398 1402 1402 1400 1404 1403 1405 1400 1398 1396 1386 1374 1366 1367 1367 1366 1365 1366 1367 1369 1369 1370 1372 1374 1376 1381 1384 1388 1391 1394
1408 1408 1406 1405 1403 1402 1401 1399 1400 1397 1396 1398 1397 1399 1401 1402 1402 1402 1405 1404 1405 1399 1400 1397 1386 1369 1368 1366 1364 1362 1361 1361 1364 1366 1367 1368 1369 1372 1375 1378 1382 1387 1391 1395
1408 1409 1406 1406 1403 1400 1395 1394 1397 1397 1400 1400 1399 1400 1401 1402 1402 1403 1404 1403 1401 1402 1399 1389 1376 1370 1369 1367 1365 1362 1360 1360 1362 1364 1366 1367 1369 1371 1373 1377 1382 1387 1392 1396
1408 1409 1404 1404 1400 1400 1400 1400 1400 1402 1402 1401 1401 1400 1401 1402 1402 1402 1403 1401 1402 1399 1397 1384 1377 1376 1373 1369 1366 1364 1362 1362 1363 1364 1365 1366 1369 1371 1374 1378 1382 1387 1391 1396
1408 1408 1403 1402 1403 1403 1402 1401 1401 1401 1401 1401 1401 1401 1402 1402 1403 1402 1403 1402 1398 1391 1383 1382 1383 1380 1375 1371 1368 1367 1365 1364 1364 1365 1366 1367 1369 1372 1376 1380 1384 1389 1393 1397
1407 1406 1403 1401 1404 1403 1403 1402 1402 1402 1401 1400 1401 1401 1400 1399 1398 1402 1399 1397 1389 1385 1391 1389 1384 1380 1377 1373 1371 1369 1368 1367 1367 1367 1367 1369 1370 1373 1377 1381 1386 1390 1394 1398
1404 1403 1402 1400 1401 1404 1405 1404 1404 1403 1402 1400 1400 1398 1394 1400 1397 1396 1390 1388 1390 1391 1389 1387 1384 1380 1377 1374 1372 1370 1369 1369 1368 1368 1368 1369 1370 1374 1378 1381 1386 1391 1396 1400